Home   Weather   Bregenz   Past weeks
Flag for Austria

Past Weather in Bregenz, Vorarlberg, Austria — Yesterday and Last 2 Weeks

Now
64 °F

Mild.


Feels Like: 64 °F
Forecast: 69 / 52 °F
Wind: 1 mph from Northeast

Location: Bregenz

Current Time: May 25, 2019 at 5:42:42 pm

Latest Report: May 25, 2019 at 4:00 pm


Visibility: N/A

Pressure: 29.95 "Hg

Humidity: 63%

Dew Point: 51 °F

Location of BregenzLocation

Past Weather in Bregenz — Graph

°F

Bregenz Temperature Yesterday

Maximum temperature yesterday: 71 °F (at 6:00 pm)
Minimum temperature yesterday: 48 °F (at 6:00 am)
Average temperature yesterday: 60 °F

High & Low Weather Summary for the Past Weeks

 TemperatureHumidityPressure
High71 °F (May 24, 6:00 pm)97% (May 20, 5:00 am)30.51 "Hg (May 20, 5:00 am)
Low37 °F (May 16, 6:00 am)25% (May 24, 6:00 pm)29.57 "Hg (May 19, 6:00 pm)
Average53 °F74%29.97 "Hg
* Reported May 10 4:00 pm — May 25 4:00 pm, Bregenz. Weather by CustomWeather, © 2019

Note: Actual official high and low records may vary slightly from our data, if they occured in-between our weather recording intervals... More about our weather records

Advertising

Bregenz Weather History for the Previous 24 Hours

Scroll right to see more
 ConditionsComfort  
Time TempWeatherWind HumidityBarometerVisibility
4:00 pm
Sat, May 25
64 °FMild.1 mph63%29.95 "HgN/A
3:00 pm63 °FMild.2 mph62%29.96 "HgN/A
2:00 pm62 °FCool.1 mph63%29.96 "HgN/A
1:00 pm61 °FCool.1 mph64%29.98 "HgN/A
12:00 pm61 °FCool.2 mph68%29.98 "HgN/A
11:00 amN/APassing clouds.94 mphN/AN/A1 mi
9:00 am57 °FCool.1 mph68%29.98 "HgN/A
8:00 am54 °FOvercast.1 mph77%29.99 "Hg9 mi
7:00 am51 °FPartly sunny.1 mph84%29.98 "Hg9 mi
6:00 am49 °FCool.1 mph86%29.97 "HgN/A
2:00 am53 °FCool.1 mph79%29.96 "HgN/A
1:00 am54 °FCool.1 mph80%29.96 "HgN/A
12:00 am55 °FCool.3 mph72%29.95 "HgN/A
11:00 pm
Fri, May 24
56 °FCool.1 mph67%29.94 "HgN/A
10:00 pm58 °FCool.1 mph63%29.93 "HgN/A
9:00 pm62 °FRefreshingly cool.2 mph50%29.90 "HgN/A
8:00 pm66 °FMild.1 mph47%29.88 "HgN/A
7:00 pm70 °FMild.1 mph25%29.88 "HgN/A
6:00 pm71 °FMild.1 mph25%29.88 "HgN/A
5:00 pm70 °FMild.2 mph29%29.89 "HgN/A
Weather by CustomWeather, © 2019

See weather overview